Preview of NWS' New Version of Forecast
This preview is not operational and should not be used for support decisions.

Regional Weather Roundup (RWR)

Issued by National Weather Service (NWS)

                            
000
ASUS43 KDMX 240606
RWRIA 

WEATHER ROUNDUP FOR IOWA
NATIONAL WEATHER SERVICE DES MOINES IA
100 AM CDT MON JUN 24 2019

NOTE: "FAIR" INDICATES FEW OR NO CLOUDS BELOW 12,000 FEET WITH NO
SIGNIFICANT WEATHER AND/OR OBSTRUCTIONS TO VISIBILITY.

* - THESE STATIONS ARE NOT NWS STATIONS...THUS NOT UNDER NWS
QUALITY CONTROL.  THEY ALSO DO NOT REPORT WEATHER SUCH 
AS PRECIPITATION OR FOG.  

IAZ001>003-012>014-020>022-031>034-043>046-240700-
   NORTHWEST IOWA
  
CITY           SKY/WX    TMP DP  RH WIND       PRES   REMARKS
CARROLL *      CLOUDY    64  63  94 NW10      29.68F                  
CHEROKEE *     CLOUDY    61  58  91 NW6       29.71F                  
DENISON *      CLOUDY    63  61  94 CALM      29.73S                  
LE MARS *      CLOUDY    61  61 100 W7        29.73R                  
SHELDON *        N/A     59  59 100 NW5       29.70F                  
SIOUX CITY     CLOUDY    61  58  90 NW9       29.74R                  
6HR MIN TEMP:  59; 6HR MAX TEMP:  64; 6HR PCP: TRACE;                

SPENCER        CLOUDY    62  58  86 W7        29.69S                  
6HR MIN TEMP:  61; 6HR MAX TEMP:  66; 6HR PCP:  0.31;                

STORM LAKE *   CLOUDY    61  59  94 NW7       29.68S                  
$$
 
IAZ055>058-069>071-079>083-090>094-240700-
   SOUTHWEST IOWA
  
CITY           SKY/WX    TMP DP  RH WIND       PRES   REMARKS
ATLANTIC *     CLOUDY    64  63  94 NW8       29.70S                  
AUDUBON *      CLOUDY    64  61  88 CALM      29.70F                  
CLARINDA *     CLOUDY    66  64  94 W12       29.74S                  
COUNCIL BLFS * CLOUDY    61  61 100 NW7       29.73R                  
CRESTON *      CLOUDY    66  66 100 SW8       29.70F                  
HARLAN  *      CLOUDY    63  61  94 NW8       29.71S                  
LAMONI         CLOUDY    66  64  93 SW9       29.71S                  
6HR MIN TEMP:  65; 6HR MAX TEMP:  69;                                

RED OAK *      MOCLDY    64  64 100 W7        29.72S                  
SHENANDOAH *   CLOUDY    66  64  94 W6        29.72F                  
$$
 
IAZ047>049-059>061-072>074-084-240700-
   CENTRAL IOWA
  
CITY           SKY/WX    TMP DP  RH WIND       PRES   REMARKS
AMES           CLEAR     65  64  97 SW5       29.67R                  
6HR MIN TEMP:  64; 6HR MAX TEMP:  74; 6HR PCP: TRACE;                

ANKENY *       CLOUDY    66  64  94 SW5       29.68R                  
BOONE *        CLOUDY    66  66 100 SW9       29.66S                  
CHARITON *       N/A     66  66 100 SW8       29.69R                  
DES MOINES     MOCLDY    66  64  93 SW7       29.67R                  
6HR MIN TEMP:  65; 6HR MAX TEMP:  72;                                

GRINNELL*      CLEAR     65  64  95 SW3       29.69R                  
KNOXVILLE *    CLEAR     66  64  94 SW7       29.68R                  
MARSHALLTOWN   CLEAR     65  65 100 S6        29.65F                  
6HR MIN TEMP:  65; 6HR MAX TEMP:  73;                                

NEWTON *       CLEAR     64  64 100 SW6       29.68R                  
PELLA *        CLEAR     65  64  93 SW3       29.69R                  
PERRY *        CLOUDY    68  68 100 SW10      29.67F                  
$$
 
IAZ004>006-015-016-023>025-035-036-240700-
   NORTH CENTRAL IOWA
  
CITY           SKY/WX    TMP DP  RH WIND       PRES   REMARKS
ALGONA *       CLOUDY    63  63 100 NW6       29.66S                  
CLARION *      CLOUDY    64  64 100 SW8       29.66R                  
ESTHERVILLE    LGT RAIN  58  56  93 NW10      29.67F                  
6HR MIN TEMP:  58; 6HR MAX TEMP:  65; 6HR PCP:  0.41;                

FORT DODGE *   CLOUDY    63  62  97 NW7       29.68R                  
MASON CITY     CLOUDY    65  62  90 SW9       29.64F                  
6HR MIN TEMP:  64; 6HR MAX TEMP:  75; 6HR PCP: TRACE;                

FOREST CITY *  CLOUDY    64  64 100 W8        29.65R                  
IOWA FALLS *   FAIR      66  65  96 SW6       29.66S                  
$$

IAZ007>011-017>019-026>030-037>042-050>054-066-240700-
   NORTHEAST IOWA
  
CITY           SKY/WX    TMP DP  RH WIND       PRES   REMARKS
CEDAR RAPIDS   CLOUDY    68  67  96 SW5       29.66F                  
6HR MIN TEMP:  68; 6HR MAX TEMP:  75;                                

CHARLES CITY * CLOUDY    68  66  94 SW5       29.63F                  
CLINTON *      CLOUDY    68  67  96 SW5       29.68S                  
DECORAH *      MOCLDY    68  68 100 CALM      29.63F                  
DUBUQUE        CLOUDY    67  65  93 S3        29.67S                  
6HR MIN TEMP:  67; 6HR MAX TEMP:  74;                                

MONTICELLO *   MOCLDY    68  68 100 CALM      29.66F                  
OELWEIN *      FAIR      66  66 100 S6        29.65F                  
WATERLOO       FAIR      68  65  90 SE6       29.62F                  
6HR MIN TEMP:  68; 6HR MAX TEMP:  77;                                

$$
 
IAZ064-065-067-068-078-240700-
   EAST CENTRAL IOWA
  
CITY           SKY/WX    TMP DP  RH WIND       PRES   REMARKS
DAVENPORT      CLOUDY    70  66  87 SW6       29.69S                  
6HR MIN TEMP:  70; 6HR MAX TEMP:  77;                                

IOWA CITY      CLOUDY    70  66  87 SW3       29.69R                  
6HR MIN TEMP:  70; 6HR MAX TEMP:  78;                                

MT. PLEASANT * PTCLDY    70  70 100 CALM      29.69S                  
MUSCATINE *    CLOUDY    70  68  94 SW5       29.68R                  
QUAD CITIES    CLOUDY    71  68  90 CALM      29.67S                  
6HR MIN TEMP:  71; 6HR MAX TEMP:  79;                                

$$
 
IAZ062-063-075>077-085>089-095>099-240700-
   SOUTHEAST IOWA
  
CITY           SKY/WX    TMP DP  RH WIND       PRES   REMARKS
BURLINGTON     CLOUDY    69  67  93 SW5       29.68S                  
6HR MIN TEMP:  69; 6HR MAX TEMP:  73;                                

FAIRFIELD *    PTCLDY    68  68 100 S5        29.67F                  
FORT MADISON * PTCLDY    70  70 100 SW5       29.70S                  
KEOKUK *       MOCLDY    70  68  94 SW8       29.69F                  
OSKALOOSA *    FAIR      66  64  93 S3        29.67F                  
CENTERVILLE *  FAIR      64  64 100 CALM      29.72R                  
OTTUMWA        CLEAR     66  64  93 S3        29.67S                  
6HR MIN TEMP:  66; 6HR MAX TEMP:  73;                                

WASHINGTON *   CLOUDY    70  70 100 W5        29.67S                  
$$

ABBREVIATIONS USED IN REMARKS
   TC - TEMPERATURES IN CELSIUS
  WCI - WIND CHILL INDEX
   HX - HEAT INDEX
  VSB - VISIBILITY  
$$